Location: Aytr�
(46.1357°N, 1.1145°W)
Time: 20:33:59
(UTC+00:00)

Cosmos 2360 Rocket - Pass Details

Date: 03 March 2021
Orbit: 833 x 846 km, 71.0° (Epoch: 20 April)

Event Time Altitude Azimuth Distance (km) Brightness Sun altitude
Rises 18:36:15 0° 181° (S) 3,373 5.4 -8.1°
Reaches altitude 10° 18:38:48 10° 174° (S) 2,445 4.6 -8.6°
Maximum altitude 18:43:59 40° 107° (ESE) 1,225 2.6 -9.5°
Drops below altitude 10° 18:49:13 10° 39° (NE) 2,470 4.3 -10.4°
Sets 18:51:48 0° 33° (NNE) 3,411 5.0 -10.8°
